This is the latest recevied weather packets stored in our database for station/object DG1JLA-3. If no packets are shown the sender has not sent any weather packets the latest 10 day(s).
| Time | Temp. | Humidity | Pressure | Rain* | Wind** | Luminosity | Snow |
|---|---|---|---|---|---|---|---|
| 1778109586 | 10.56° C | 93% | 1009.6 hPa | 0 mm | - | - | - |
| 1778109286 | 10.56° C | 93% | 1009.4 hPa | 0 mm | - | - | - |
| 1778108986 | 10.56° C | 93% | 1009.4 hPa | 0 mm | - | - | - |
| 1778108686 | 10.56° C | 93% | 1009.4 hPa | 0 mm | - | - | - |
| 1778108386 | 10.56° C | 93% | 1009.3 hPa | 0 mm | - | - | - |
| 1778108086 | 10.56° C | 93% | 1009.3 hPa | 0 mm | - | - | - |
| 1778107786 | 10.56° C | 93% | 1009.3 hPa | 0 mm | - | - | - |
| 1778107486 | 10.56° C | 93% | 1009.4 hPa | 0 mm | - | - | - |
| 1778107186 | 10.56° C | 93% | 1009.4 hPa | 0 mm | - | - | - |
| 1778106886 | 10.56° C | 93% | 1009.3 hPa | 0 mm | - | - | - |
| 1778106586 | 10.56° C | 93% | 1009.3 hPa | 0 mm | - | - | - |
| 1778106286 | 10.56° C | 93% | 1009.3 hPa | 0 mm | - | - | - |
| 1778105986 | 10.56° C | 93% | 1009.3 hPa | 0 mm | - | - | - |
| 1778105686 | 10.56° C | 93% | 1009.5 hPa | 0 mm | - | - | - |
| 1778105386 | 10.56° C | 93% | 1009.4 hPa | 0 mm | - | - | - |
| 1778105086 | 10.56° C | 93% | 1009.5 hPa | 0 mm | - | - | - |
| 1778104786 | 10.56° C | 93% | 1009.5 hPa | 0.25 mm | - | - | - |
| 1778104486 | 10.56° C | 93% | 1009.5 hPa | 0.25 mm | - | - | - |
| 1778104186 | 10.56° C | 93% | 1009.6 hPa | 0.51 mm | - | - | - |
| 1778103886 | 10.56° C | 93% | 1009.8 hPa | 2.29 mm | - | - | - |
| 1778103586 | 10.56° C | 93% | 1009.7 hPa | 4.57 mm | - | - | - |
| 1778103286 | 10.56° C | 93% | 1009.7 hPa | 8.13 mm | - | - | - |
| 1778102986 | 10.56° C | 92% | 1009.5 hPa | 8.13 mm | - | - | - |
| 1778102686 | 10.56° C | 92% | 1009.3 hPa | 8.13 mm | - | - | - |
| 1778102386 | 10.56° C | 92% | 1009.2 hPa | 8.13 mm | - | - | - |
* Rain latest hour (hover to see other rain measurements)
** Current wind speed in m/s (hover to see current wind gust speed)